Location: Hains Lake
(37.8540°N, 99.8578°W)
Time: 11:19:26
(UTC+00:00)

Tiros 1 despin weight - Pass Details

Date: 24 April 2021
Orbit: 593 x 642 km, 48.2° (Epoch: 07 May)

Event Time Altitude Azimuth Distance (km) Brightness Sun altitude
Rises 11:14:17 0° 265° (W) 2,921 - -7.8°
Exits shadow 11:16:05 - 271° (W) 2,259 ? -7.4°
Reaches altitude 10° 11:16:48 10° 275° (W) 2,008 ? -7.3°
Maximum altitude 11:21:00 33° 340° (NNW) 1,045 ? -6.5°
Drops below altitude 10° 11:25:09 10° 45° (NE) 1,985 ? -5.8°
Sets 11:27:38 0° 55° (NE) 2,882 ? -5.3°
